Wind_Speed
9 7 5 3 2 6 9 5 6 5 3 9 8 4 5 7 4 4 6 6 6 6 6 6 6 6 5 4 5 6 7 7 7 7 7 7 9 10 10 11 12 13 13 14 15 15 15 15 15
9 6 4 3 5 10 5 8 7 6 9 6 6 5 3 6 7 8 6 5 3 7 6 6 6 5 4 4 5 6 7 7 7 7 8 8 9 10 10 11 12 13 13 15 16 16 17 17 18
9 7 4 4 8 9 2 6 7 10 8 6 3 5 7 9 6 5 4 4 5 6 6 6 6 5 5 5 6 7 7 7 8 8 9 9 9 10 10 11 11 12 13 14 16 17 19 20 20
9 8 7 8 9 9 6 4 8 9 8 6 6 2 6 6 5 4 4 3 5 6 6 6 7 7 6 6 7 7 7 8 9 9 10 11 11 10 11 12 13 13 15 16 17 19 20 21 22
10 10 9 9 12 11 8 9 12 7 6 6 5 5 8 6 6 5 4 4 6 6 6 6 6 6 6 6 7 7 8 9 10 11 11 12 12 11 12 13 14 15 17 18 19 20 20 21 22
10 11 9 12 11 10 12 13 13 11 8 9 7 7 10 8 6 6 5 6 6 6 6 5 6 6 6 7 7 8 9 10 11 11 11 12 13 13 14 15 17 18 18 18 19 20 22 23 24
11 10 13 13 10 9 11 15 15 10 10 10 9 4 9 8 7 6 6 6 6 6 5 5 6 6 7 7 8 9 10 11 11 10 11 12 13 14 16 18 19 18 18 20 22 23 25 27 28
14 11 12 10 9 10 12 11 15 13 9 13 9 4 10 9 7 8 7 8 7 7 6 5 6 7 7 7 8 10 10 11 11 11 11 12 14 15 18 18 17 18 19 22 24 26 28 30 32
16 13 13 14 10 7 11 11 14 13 14 13 12 13 11 10 11 10 10 10 8 8 7 6 6 8 9 8 9 10 11 11 10 11 12 14 15 17 18 18 18 20 21 24 26 28 31 32 33
19 16 13 15 13 13 13 11 16 14 15 14 14 13 14 14 13 13 13 12 10 9 8 7 7 9 10 10 10 11 11 11 10 11 13 15 17 18 18 18 19 22 23 25 28 30 30 29 28
24 26 16 21 17 18 17 15 16 14 16 13 13 17 15 15 13 13 14 14 13 9 8 8 9 9 10 10 10 10 11 11 10 12 14 16 18 19 18 18 21 23 24 27 29 27 25 27 28
27 26 27 24 22 22 19 19 17 18 14 16 16 18 16 17 17 17 16 15 13 11 9 9 10 10 10 10 9 10 11 10 11 13 15 17 19 18 18 20 21 23 26 28 26 26 27 27 27
26 27 28 25 25 26 26 24 25 24 17 18 18 18 20 19 19 18 18 16 12 11 11 10 11 11 11 10 8 9 10 9 12 14 16 18 19 19 19 20 22 24 27 25 25 25 26 27 26
25 25 30 29 26 28 28 25 29 22 18 18 20 18 19 19 19 21 18 15 14 12 11 11 11 11 10 9 7 8 8 10 12 13 16 17 18 18 19 20 22 26 25 23 24 24 25 24 22
26 29 28 28 24 29 29 32 33 22 23 22 21 20 21 19 19 17 17 17 16 14 11 12 11 11 10 9 7 7 8 10 12 13 16 17 17 18 19 20 23 25 22 23 23 25 24 21 19
20 22 20 20 25 29 26 34 20 20 16 20 22 23 22 21 21 20 20 18 15 13 11 12 11 11 10 9 7 7 8 9 11 13 15 16 17 17 19 20 23 23 21 21 22 23 20 19 17
19 15 14 16 22 25 25 31 26 25 26 25 23 21 20 23 21 20 19 17 16 14 14 12 12 11 11 9 7 6 8 9 10 12 14 15 16 17 18 20 23 20 19 19 21 20 21 20 15
19 19 19 19 15 17 21 30 28 27 25 17 22 23 25 23 23 21 19 19 14 13 14 14 12 12 12 10 8 6 8 8 9 12 13 14 15 16 18 19 22 18 17 18 19 18 21 19 17
18 19 17 14 22 24 26 32 32 26 28 33 28 23 21 23 24 23 22 21 16 15 14 14 13 14 12 11 9 6 7 8 8 10 12 13 13 15 17 18 19 17 15 16 16 16 19 18 14
28 23 20 19 26 28 31 36 36 33 32 31 26 28 25 25 25 23 23 24 23 19 18 17 16 15 14 12 9 7 7 8 8 9 11 12 12 14 15 16 18 15 13 13 14 14 17 18 14
30 29 22 21 21 25 30 41 38 34 34 32 33 28 28 29 26 26 23 23 25 25 21 19 18 18 16 13 10 8 8 8 7 7 9 11 11 13 14 15 17 13 11 11 11 12 15 16 14
25 26 25 22 16 8 9 13 23 17 23 27 30 31 30 30 29 29 28 27 27 28 26 24 21 19 17 15 12 10 8 8 7 6 8 10 10 12 13 14 16 12 9 8 7 10 12 13 13
21 20 15 16 19 17 19 13 15 17 27 28 19 23 28 30 30 32 30 29 29 30 28 26 23 21 19 17 13 11 9 8 6 6 7 8 9 10 13 13 14 12 9 6 5 6 9 11 12
23 17 9 8 6 8 20 18 23 24 25 23 21 25 20 27 30 31 30 30 30 29 29 27 24 22 21 18 15 12 10 9 7 6 6 7 8 9 11 12 13 12 9 6 4 2 5 8 11
25 15 3 3 4 7 6 15 29 12 13 10 15 22 25 27 25 28 28 27 27 27 26 25 24 23 22 20 16 13 11 10 7 6 5 6 6 7 9 11 11 13 9 6 3 3 4 5 8
37 29 12 7 6 4 11 14 18 17 16 24 28 25 25 29 25 25 25 25 24 24 24 24 24 24 23 21 18 15 13 11 8 6 5 5 5 6 7 9 10 11 9 6 4 3 6 8 9
26 29 28 11 9 4 12 25 31 26 25 27 25 22 22 23 28 26 26 26 25 25 25 25 25 25 25 22 19 16 14 12 9 7 6 5 4 5 6 8 9 11 9 7 5 1 8 12 11
31 28 14 15 7 11 19 29 25 13 7 14 28 29 28 25 27 29 28 27 27 26 26 27 26 26 26 24 21 18 15 13 10 8 7 6 5 5 4 6 8 9 10 8 5 4 7 14 15
31 29 23 18 25 8 7 17 26 25 21 29 20 18 28 27 26 26 27 27 27 26 26 26 26 27 26 25 22 20 17 14 11 9 8 7 6 6 5 5 6 8 10 8 4 3 8 14 15
36 38 43 22 12 27 20 31 18 10 13 18 22 21 20 21 24 24 26 26 26 26 26 25 26 26 26 25 24 21 18 15 12 10 8 7 7 7 7 5 5 6 8 7 2 0 8 14 14
Wind_Direction
240 240 240 203 233 236 243 254 203 195 226 231 249 215 212 231 235 253 266 284 307 312 329 333 327 316 316 299 285 285 291 301 305 297 291 287 280 281 283 284 282 281 284 284 281 278 277 277 273
233 229 214 215 234 235 226 213 200 198 222 249 251 231 262 263 240 240 265 293 301 322 329 326 321 320 314 296 299 304 310 312 308 301 298 293 289 286 286 285 286 287 284 282 282 279 275 272 267
228 218 185 240 240 236 284 193 200 223 236 252 261 222 219 239 235 241 273 293 312 324 326 327 323 316 310 309 312 315 314 311 307 307 305 304 301 301 299 294 291 288 285 284 282 281 279 276 272
229 231 234 234 244 249 233 201 204 221 239 256 241 250 235 241 249 259 274 287 303 326 337 340 336 329 324 322 318 317 318 317 319 319 317 315 312 310 304 300 296 294 292 289 287 284 280 277 275
229 231 227 250 252 248 235 225 216 212 234 258 241 251 247 249 250 254 269 291 307 327 341 345 336 323 317 316 317 319 322 324 323 321 319 316 311 310 306 302 300 297 293 291 288 286 284 280 277
224 216 229 243 252 267 246 232 222 232 238 253 266 248 253 251 253 250 274 288 304 321 332 334 324 316 313 315 316 319 324 327 325 322 321 317 314 312 308 307 304 300 296 295 294 293 290 287 283
205 233 238 245 245 264 257 240 229 238 245 256 262 249 262 254 250 247 270 283 295 306 315 317 311 311 312 311 318 323 327 329 326 323 320 318 317 314 312 311 308 303 300 300 299 299 296 291 287
220 229 239 245 240 253 254 245 230 243 239 250 258 262 268 246 238 256 268 274 278 288 297 303 308 305 308 312 317 321 327 328 325 324 321 319 317 316 315 312 309 307 306 305 305 302 299 298 292
229 233 240 234 235 243 247 242 240 242 250 251 254 255 259 255 263 263 265 265 265 276 286 294 304 308 313 314 316 320 326 329 326 324 321 320 321 321 318 314 314 315 314 312 310 308 305 301 299
226 235 248 239 222 236 250 242 246 250 257 257 255 256 262 266 268 266 263 261 259 265 279 288 298 308 314 314 315 319 324 327 325 324 323 324 325 325 322 321 320 319 317 316 315 315 314 311 305
233 236 243 246 246 245 249 250 248 248 249 257 261 261 260 265 266 261 257 256 254 261 269 281 293 303 310 312 311 316 323 326 325 325 325 327 329 330 330 325 322 321 323 324 324 324 324 320 315
238 246 246 253 254 255 253 249 254 248 244 256 259 263 265 266 267 258 253 251 254 255 264 276 289 298 306 312 312 314 321 323 326 327 327 331 334 336 331 327 325 327 332 333 332 336 336 334 328
247 244 252 253 255 255 255 253 258 249 247 254 257 262 266 264 264 258 253 252 249 253 259 273 284 295 305 307 306 311 317 323 327 328 331 336 339 337 335 331 331 337 340 341 344 346 349 345 340
249 249 255 255 253 258 259 258 258 251 254 255 258 257 261 259 257 252 252 247 242 248 256 270 279 290 298 302 301 310 317 325 327 330 334 339 339 340 337 334 337 343 348 349 355 358 358 356 351
252 256 257 256 259 260 261 261 257 269 260 251 253 255 256 255 253 255 248 240 239 240 254 263 274 287 293 295 297 307 317 323 327 331 334 339 339 342 338 337 344 351 353 358 7 5 8 1 4
256 261 264 262 258 259 260 258 263 258 261 255 252 251 252 250 250 248 241 240 237 242 250 256 267 281 286 288 292 300 315 321 327 329 333 338 340 343 339 343 349 357 359 9 13 12 12 12 21
253 252 259 265 266 260 255 262 266 266 261 255 253 249 253 246 243 237 238 237 235 245 251 250 258 272 277 277 281 295 310 320 323 328 334 338 340 342 341 348 354 360 6 18 16 19 26 23 30
232 239 246 245 275 263 264 261 260 258 261 251 252 250 248 248 236 233 236 231 237 249 249 254 256 263 268 268 269 289 305 314 318 329 333 336 341 341 343 351 358 1 13 24 20 31 37 31 41
240 236 247 247 260 272 272 271 263 254 251 253 251 254 245 241 236 235 232 226 235 250 251 255 252 256 259 257 259 280 296 304 315 326 330 335 341 342 345 353 360 2 18 30 24 40 46 35 37
243 248 251 262 265 272 273 270 266 260 253 254 254 249 247 240 239 239 235 234 238 249 249 248 251 252 253 249 252 268 283 294 309 320 328 334 340 342 345 352 1 4 22 35 26 48 54 46 47
239 243 244 253 272 278 284 281 273 268 261 253 250 247 244 244 244 242 242 243 244 250 249 248 246 245 245 242 246 258 271 284 299 314 324 332 339 341 344 352 1 4 22 43 33 52 64 55 55
240 251 249 249 263 261 286 289 264 258 264 254 250 248 246 244 244 246 246 244 244 246 246 243 241 241 238 235 240 248 259 273 289 306 317 330 336 339 343 351 360 4 20 52 43 54 74 71 66
230 247 255 249 252 276 261 270 278 277 265 256 256 247 245 245 243 244 244 244 243 243 241 238 237 235 233 230 234 241 251 263 277 290 306 327 332 337 342 350 357 1 15 49 71 54 82 95 86
239 232 234 234 224 253 247 230 272 259 271 276 253 245 240 238 238 238 238 238 238 238 233 232 230 229 229 226 230 235 243 256 264 275 298 319 330 336 342 349 353 355 9 46 97 122 88 114 111
211 198 125 203 182 247 254 213 245 239 260 266 251 241 241 241 242 239 237 237 236 233 229 228 226 227 225 222 225 230 237 248 254 263 282 307 326 333 342 343 351 351 2 21 65 157 159 143 139
214 199 188 205 187 249 215 234 261 272 256 269 266 258 248 244 243 238 235 231 232 231 226 222 223 225 223 220 223 225 232 240 244 251 269 292 317 324 334 338 347 347 359 6 26 183 180 174 168
199 208 215 246 236 281 236 260 269 271 259 264 256 255 249 245 243 236 233 230 227 221 220 222 223 221 219 219 221 224 228 233 236 245 261 280 300 315 322 332 340 341 357 355 4 296 189 180 178
218 208 186 209 213 237 249 253 249 258 280 266 251 243 238 239 240 237 231 228 225 221 222 223 222 220 217 218 220 222 226 230 234 244 257 272 282 297 304 318 331 333 344 353 353 337 200 183 182
194 198 205 203 215 211 257 248 249 251 263 255 262 262 248 253 245 240 234 227 224 224 225 225 224 223 220 218 219 220 224 228 233 242 251 263 277 283 290 301 316 325 336 349 351 14 174 180 187
220 216 203 196 195 227 248 261 235 223 242 247 245 250 244 247 243 238 229 224 224 226 225 226 227 225 220 219 220 220 223 226 232 244 253 263 266 277 282 279 286 303 321 334 328 256 164 180 190
Height
3132 3132 3133 3134 3141 3136 3134 3135 3134 3135 3136 3135 3135 3135 3137 3135 3136 3139 3134 3133 3132 3131 3130 3129 3128 3127 3126 3126 3125 3125 3125 3124 3124 3123 3121 3121 3120 3119 3119 3118 3117 3116 3115 3115 3114 3112 3112 3111 3110
3132 3132 3133 3135 3137 3134 3131 3133 3134 3136 3134 3134 3134 3134 3136 3137 3133 3133 3133 3132 3131 3130 3129 3128 3127 3126 3126 3125 3125 3125 3124 3124 3123 3122 3121 3119 3118 3118 3117 3116 3116 3115 3113 3112 3110 3109 3108 3107 3106
3131 3132 3134 3136 3134 3133 3132 3133 3135 3133 3133 3134 3134 3134 3134 3133 3132 3132 3132 3131 3131 3130 3129 3128 3127 3126 3126 3125 3125 3124 3123 3122 3121 3120 3119 3118 3117 3117 3116 3114 3113 3112 3111 3109 3108 3106 3105 3104 3103
3130 3132 3133 3132 3132 3132 3132 3133 3132 3133 3133 3133 3133 3134 3133 3132 3132 3131 3131 3131 3130 3129 3128 3128 3127 3127 3126 3125 3124 3123 3122 3121 3120 3119 3118 3117 3116 3114 3113 3112 3111 3109 3108 3106 3105 3103 3101 3100 3099
3129 3130 3132 3130 3130 3131 3130 3131 3130 3133 3134 3132 3132 3134 3131 3131 3131 3130 3130 3130 3129 3129 3128 3127 3127 3126 3125 3124 3123 3122 3121 3120 3119 3118 3117 3116 3114 3113 3111 3110 3108 3106 3104 3102 3100 3098 3097 3096 3094
3128 3128 3129 3129 3129 3128 3128 3128 3129 3131 3132 3131 3131 3131 3130 3130 3130 3130 3129 3129 3128 3128 3128 3127 3126 3125 3124 3123 3122 3122 3121 3120 3118 3117 3116 3114 3113 3112 3110 3108 3106 3104 3101 3099 3097 3095 3093 3091 3089
3124 3127 3127 3127 3127 3127 3127 3126 3128 3130 3131 3130 3130 3131 3129 3129 3129 3129 3128 3128 3128 3128 3127 3126 3125 3124 3124 3123 3122 3122 3121 3119 3117 3116 3114 3113 3112 3110 3108 3106 3103 3101 3098 3096 3093 3091 3088 3085 3082
3123 3125 3125 3123 3125 3126 3123 3124 3126 3127 3129 3127 3128 3129 3128 3127 3128 3128 3128 3127 3127 3127 3126 3125 3125 3124 3123 3122 3122 3121 3120 3118 3117 3115 3113 3112 3110 3108 3106 3103 3101 3099 3096 3093 3091 3087 3083 3080 3076
3120 3122 3122 3123 3122 3123 3121 3122 3123 3124 3125 3126 3126 3126 3127 3126 3126 3126 3126 3126 3126 3126 3125 3125 3124 3124 3123 3122 3121 3120 3119 3117 3116 3114 3112 3110 3109 3107 3105 3102 3099 3097 3094 3091 3087 3082 3078 3074 3070
3117 3117 3120 3120 3119 3119 3120 3120 3120 3122 3122 3123 3124 3124 3124 3124 3124 3125 3124 3124 3124 3124 3124 3124 3123 3123 3122 3121 3120 3119 3118 3116 3115 3113 3111 3109 3108 3105 3102 3100 3097 3094 3091 3087 3082 3078 3074 3069 3064
3112 3111 3116 3115 3115 3116 3117 3118 3117 3119 3120 3121 3121 3120 3121 3121 3122 3122 3122 3122 3122 3123 3123 3123 3122 3122 3121 3120 3119 3119 3117 3116 3114 3112 3110 3108 3106 3103 3101 3097 3094 3091 3087 3083 3078 3073 3068 3062 3057
3107 3109 3110 3111 3112 3112 3113 3114 3114 3115 3118 3117 3118 3118 3118 3119 3119 3119 3119 3119 3121 3121 3121 3121 3121 3120 3120 3119 3118 3117 3116 3115 3113 3111 3109 3107 3104 3102 3098 3095 3091 3088 3084 3079 3073 3068 3062 3056 3051
3103 3105 3105 3107 3107 3108 3108 3109 3109 3110 3113 3114 3114 3115 3115 3115 3116 3116 3116 3117 3118 3119 3119 3120 3120 3119 3118 3117 3116 3116 3115 3114 3112 3110 3108 3106 3103 3100 3096 3092 3088 3085 3080 3075 3070 3064 3059 3052 3046
3097 3100 3101 3102 3103 3103 3103 3105 3103 3107 3110 3110 3110 3111 3111 3112 3112 3112 3114 3115 3115 3116 3117 3118 3118 3117 3116 3115 3114 3114 3113 3113 3111 3109 3107 3104 3101 3098 3094 3090 3086 3082 3078 3074 3069 3063 3058 3051 3045
3095 3096 3096 3097 3100 3098 3099 3098 3097 3104 3104 3105 3106 3107 3108 3108 3108 3110 3111 3112 3113 3114 3115 3116 3116 3116 3115 3113 3113 3112 3111 3111 3110 3108 3106 3103 3100 3096 3093 3089 3085 3081 3077 3073 3068 3063 3057 3050 3046
3094 3093 3093 3093 3095 3095 3097 3091 3095 3098 3099 3100 3101 3102 3103 3104 3105 3106 3107 3109 3110 3111 3112 3113 3114 3114 3113 3112 3111 3111 3110 3110 3108 3107 3105 3102 3099 3095 3091 3088 3084 3081 3077 3073 3068 3063 3057 3053 3049
3088 3090 3090 3092 3089 3090 3090 3088 3091 3094 3094 3096 3097 3097 3099 3100 3101 3102 3104 3106 3108 3109 3110 3110 3111 3111 3111 3110 3110 3109 3109 3108 3107 3106 3104 3101 3098 3095 3091 3088 3084 3081 3078 3074 3070 3065 3060 3056 3053
3083 3084 3086 3086 3085 3085 3084 3082 3087 3089 3089 3090 3091 3092 3094 3096 3098 3099 3101 3103 3105 3106 3107 3108 3108 3109 3108 3108 3108 3108 3108 3107 3106 3105 3103 3100 3098 3095 3091 3088 3085 3082 3080 3075 3072 3067 3063 3061 3058
3080 3082 3082 3084 3081 3081 3080 3077 3079 3082 3081 3084 3087 3089 3090 3092 3094 3096 3097 3100 3101 3102 3103 3105 3105 3106 3106 3106 3106 3106 3106 3106 3105 3104 3102 3100 3097 3094 3091 3089 3085 3083 3081 3077 3074 3070 3067 3065 3063
3076 3076 3077 3079 3078 3078 3076 3070 3072 3074 3076 3078 3081 3084 3086 3088 3089 3092 3094 3095 3097 3098 3099 3100 3102 3103 3104 3104 3104 3104 3104 3104 3103 3102 3101 3100 3096 3094 3091 3089 3086 3084 3082 3079 3077 3073 3070 3069 3068
3069 3071 3074 3077 3075 3074 3071 3061 3065 3069 3068 3071 3074 3078 3080 3083 3085 3087 3089 3092 3093 3094 3095 3097 3098 3100 3101 3101 3101 3102 3102 3102 3102 3101 3100 3099 3096 3094 3091 3089 3087 3086 3083 3080 3079 3076 3074 3073 3072
3066 3067 3070 3073 3074 3074 3072 3059 3059 3061 3061 3064 3068 3071 3075 3077 3079 3081 3084 3086 3088 3090 3091 3093 3094 3096 3098 3099 3099 3100 3100 3100 3100 3099 3099 3098 3096 3093 3091 3090 3087 3086 3084 3082 3081 3080 3078 3076 3076
3062 3064 3068 3069 3070 3070 3069 3070 3051 3054 3055 3060 3063 3065 3068 3070 3073 3075 3078 3080 3082 3083 3086 3088 3090 3092 3094 3095 3096 3098 3098 3098 3098 3097 3097 3096 3095 3093 3091 3090 3088 3086 3085 3083 3083 3082 3081 3079 3079
3059 3062 3065 3067 3068 3066 3061 3066 3043 3051 3052 3055 3058 3059 3060 3063 3065 3068 3070 3073 3075 3077 3080 3083 3086 3088 3090 3092 3093 3095 3096 3097 3097 3096 3096 3095 3094 3092 3091 3090 3088 3087 3085 3084 3084 3083 3083 3082 3082
3053 3059 3065 3068 3066 3056 3055 3058 3037 3046 3048 3050 3053 3054 3055 3057 3059 3062 3065 3068 3070 3072 3075 3078 3081 3084 3087 3089 3091 3092 3094 3095 3095 3095 3095 3094 3093 3092 3090 3090 3088 3087 3085 3084 3084 3084 3083 3085 3084
3042 3050 3050 3051 3053 3050 3053 3044 3033 3039 3043 3046 3048 3050 3050 3051 3054 3057 3059 3062 3066 3069 3072 3074 3077 3080 3083 3085 3088 3089 3091 3092 3093 3093 3093 3093 3092 3092 3090 3089 3088 3087 3085 3084 3084 3083 3084 3084 3086
3038 3039 3047 3047 3048 3050 3042 3031 3030 3035 3038 3041 3042 3043 3045 3046 3048 3050 3054 3057 3060 3064 3067 3070 3073 3075 3078 3082 3085 3087 3088 3090 3090 3091 3091 3091 3091 3090 3090 3089 3088 3087 3085 3083 3083 3083 3083 3084 3085
3026 3036 3041 3043 3045 3048 3030 3027 3022 3028 3031 3033 3032 3035 3038 3040 3042 3044 3048 3052 3055 3059 3062 3065 3068 3072 3075 3078 3081 3084 3085 3087 3088 3089 3090 3090 3089 3089 3089 3089 3088 3087 3085 3083 3082 3082 3082 3083 3085
3018 3022 3026 3032 3032 3028 3023 3017 3019 3021 3026 3028 3030 3030 3034 3036 3038 3040 3043 3047 3051 3054 3057 3061 3064 3067 3071 3074 3077 3080 3082 3084 3085 3087 3087 3088 3088 3088 3088 3087 3087 3086 3085 3083 3082 3081 3081 3084 3086
3007 3007 3012 3014 3016 3022 3024 3006 3014 3016 3019 3021 3024 3025 3028 3031 3033 3035 3039 3042 3046 3049 3053 3056 3060 3064 3067 3071 3074 3076 3079 3081 3083 3084 3085 3086 3086 3086 3086 3086 3086 3085 3084 3083 3082 3082 3082 3084 3086